Météo par heure à Kyyashkivs'ke

Ce jour, 4 Août, Mercredi

Heure Température Précipitation Vent Pression Humidité
00:00 +19°C° 0 mm 2 m/s 747 mmHg 59%
01:00 +18°C° 0 mm 2 m/s 747 mmHg 61%
02:00 +19°C° 0 mm 1 m/s 747 mmHg 63%
03:00 +18°C° 0 mm 2 m/s 747 mmHg 64%
04:00 +17°C° 0 mm 2 m/s 748 mmHg 66%
05:00 +17°C° 0 mm 2 m/s 748 mmHg 67%
06:00 +19°C° 0 mm 2 m/s 748 mmHg 61%
07:00 +22°C° 0 mm 1 m/s 748 mmHg 54%
08:00 +24°C° 0 mm 1 m/s 748 mmHg 49%
09:00 +25°C° 0 mm 1 m/s 749 mmHg 43%
10:00 +26°C° 0 mm 2 m/s 749 mmHg 38%
11:00 +27°C° 0 mm 2 m/s 749 mmHg 33%
12:00 +28°C° 0 mm 2 m/s 749 mmHg 32%
13:00 +28°C° 0 mm 2 m/s 748 mmHg 31%
14:00 +29°C° 0 mm 2 m/s 748 mmHg 30%
15:00 +29°C° 0 mm 2 m/s 748 mmHg 31%
16:00 +29°C° 0 mm 1 m/s 748 mmHg 32%
17:00 +28°C° 0 mm 1 m/s 747 mmHg 33%
18:00 +27°C° 0 mm 1 m/s 747 mmHg 37%
19:00 +25°C° 0 mm 2 m/s 747 mmHg 41%
20:00 +23°C° 0 mm 2 m/s 747 mmHg 46%
21:00 +21°C° 0 mm 2 m/s 747 mmHg 48%
22:00 +20°C° 0 mm 2 m/s 748 mmHg 50%
23:00 +19°C° 0 mm 2 m/s 748 mmHg 52%

Demain, 5 Août, Jeudi

Heure Température Précipitation Vent Pression Humidité
00:00 +19°C° 0 mm 2 m/s 748 mmHg 52%
01:00 +19°C° 0 mm 3 m/s 747 mmHg 52%
02:00 +19°C° 0 mm 3 m/s 747 mmHg 52%
03:00 +19°C° 0 mm 2 m/s 747 mmHg 53%
04:00 +19°C° 0 mm 2 m/s 747 mmHg 54%
05:00 +19°C° 0 mm 2 m/s 747 mmHg 54%
06:00 +21°C° 0 mm 2 m/s 747 mmHg 51%
07:00 +22°C° 0 mm 3 m/s 747 mmHg 48%
08:00 +25°C° 0 mm 4 m/s 747 mmHg 45%
09:00 +26°C° 0 mm 4 m/s 747 mmHg 43%
10:00 +28°C° 0 mm 5 m/s 746 mmHg 41%
11:00 +29°C° 0 mm 5 m/s 746 mmHg 38%
12:00 +29°C° 0 mm 5 m/s 746 mmHg 38%
13:00 +30°C° 0 mm 4 m/s 746 mmHg 38%
14:00 +30°C° 0 mm 3 m/s 745 mmHg 38%
15:00 +30°C° 0 mm 3 m/s 745 mmHg 39%
16:00 +30°C° 0 mm 3 m/s 744 mmHg 39%
17:00 +29°C° 0 mm 3 m/s 744 mmHg 40%
18:00 +28°C° 0 mm 3 m/s 744 mmHg 43%
19:00 +27°C° 0 mm 3 m/s 744 mmHg 46%
20:00 +25°C° 0 mm 3 m/s 744 mmHg 48%
21:00 +25°C° 0 mm 4 m/s 743 mmHg 47%
22:00 +25°C° 0 mm 4 m/s 743 mmHg 45%
23:00 +25°C° 0 mm 5 m/s 743 mmHg 44%

Après-demain, 6 Août, Vendredi

Heure Température Précipitation Vent Pression Humidité
00:00 +23°C° 0 mm 4 m/s 743 mmHg 46%
01:00 +22°C° 0 mm 4 m/s 743 mmHg 48%
02:00 +22°C° 0 mm 4 m/s 743 mmHg 51%
03:00 +21°C° 0 mm 4 m/s 742 mmHg 53%
04:00 +20°C° 0 mm 4 m/s 742 mmHg 55%
05:00 +20°C° 0 mm 4 m/s 742 mmHg 57%
06:00 +22°C° 0 mm 4 m/s 742 mmHg 52%
07:00 +25°C° 0 mm 4 m/s 741 mmHg 47%
08:00 +27°C° 0 mm 4 m/s 741 mmHg 43%
09:00 +29°C° 0 mm 4 m/s 741 mmHg 38%
10:00 +32°C° 0 mm 4 m/s 741 mmHg 33%
11:00 +34°C° 0 mm 5 m/s 741 mmHg 28%
12:00 +35°C° 0 mm 5 m/s 740 mmHg 27%
13:00 +36°C° 0 mm 5 m/s 740 mmHg 25%
14:00 +37°C° 0 mm 5 m/s 740 mmHg 23%
15:00 +37°C° 0 mm 5 m/s 739 mmHg 24%
16:00 +36°C° 0 mm 4 m/s 739 mmHg 25%
17:00 +36°C° 0 mm 4 m/s 739 mmHg 27%
18:00 +33°C° 0 mm 4 m/s 739 mmHg 37%
19:00 +29°C° 0 mm 4 m/s 739 mmHg 46%
20:00 +27°C° 0 mm 4 m/s 740 mmHg 56%
21:00 +26°C° 0 mm 4 m/s 739 mmHg 61%
22:00 +23°C° 0 mm 4 m/s 739 mmHg 65%
23:00 +22°C° 0 mm 4 m/s 739 mmHg 69%

7 Août, Samedi

Heure Température Précipitation Vent Pression Humidité
00:00 +21°C° 0.6 mm 3 m/s 739 mmHg 75%
01:00 +20°C° 0.6 mm 2 m/s 739 mmHg 81%
02:00 +19°C° 0.6 mm 2 m/s 740 mmHg 87%
03:00 +19°C° 0.3 mm 2 m/s 739 mmHg 87%
04:00 +19°C° 0.3 mm 2 m/s 739 mmHg 86%
05:00 +20°C° 0.3 mm 3 m/s 739 mmHg 86%
06:00 +21°C° 0 mm 3 m/s 739 mmHg 78%
07:00 +24°C° 0 mm 2 m/s 740 mmHg 71%
08:00 +26°C° 0 mm 2 m/s 740 mmHg 63%
09:00 +27°C° 0 mm 3 m/s 740 mmHg 58%
10:00 +29°C° 0 mm 3 m/s 740 mmHg 53%
11:00 +30°C° 0 mm 3 m/s 741 mmHg 48%
12:00 +31°C° 0 mm 3 m/s 741 mmHg 46%
13:00 +32°C° 0 mm 4 m/s 741 mmHg 45%
14:00 +33°C° 0 mm 4 m/s 741 mmHg 43%
15:00 +32°C° 0 mm 5 m/s 741 mmHg 48%
16:00 +29°C° 0 mm 5 m/s 742 mmHg 53%
17:00 +28°C° 0 mm 6 m/s 742 mmHg 58%
18:00 +26°C° 0.1 mm 6 m/s 742 mmHg 62%
19:00 +25°C° 0.1 mm 5 m/s 743 mmHg 67%
20:00 +22°C° 0.1 mm 5 m/s 743 mmHg 71%
21:00 +21°C° 0.3 mm 4 m/s 743 mmHg 75%
22:00 +20°C° 0.3 mm 4 m/s 744 mmHg 79%
23:00 +19°C° 0.3 mm 3 m/s 744 mmHg 83%

8 Août, Dimanche

Heure Température Précipitation Vent Pression Humidité
00:00 +19°C° 0 mm 3 m/s 744 mmHg 83%
01:00 +18°C° 0 mm 4 m/s 744 mmHg 84%
02:00 +18°C° 0 mm 4 m/s 745 mmHg 84%
03:00 +17°C° 0 mm 4 m/s 745 mmHg 85%
04:00 +17°C° 0 mm 4 m/s 745 mmHg 85%
05:00 +17°C° 0 mm 4 m/s 745 mmHg 85%
06:00 +19°C° 0 mm 4 m/s 745 mmHg 77%
07:00 +21°C° 0 mm 5 m/s 746 mmHg 68%
08:00 +23°C° 0 mm 5 m/s 746 mmHg 59%
09:00 +25°C° 0 mm 5 m/s 746 mmHg 52%
10:00 +27°C° 0 mm 5 m/s 746 mmHg 45%
11:00 +29°C° 0 mm 5 m/s 746 mmHg 37%
12:00 +30°C° 0 mm 5 m/s 746 mmHg 34%
13:00 +30°C° 0 mm 5 m/s 746 mmHg 30%
14:00 +32°C° 0 mm 5 m/s 746 mmHg 27%
15:00 +32°C° 0 mm 4 m/s 746 mmHg 28%
16:00 +32°C° 0 mm 4 m/s 746 mmHg 28%
17:00 +30°C° 0 mm 4 m/s 746 mmHg 29%
18:00 +28°C° 0 mm 4 m/s 746 mmHg 35%
19:00 +25°C° 0 mm 4 m/s 746 mmHg 42%
20:00 +22°C° 0 mm 3 m/s 747 mmHg 48%
21:00 +21°C° 0 mm 3 m/s 747 mmHg 51%
22:00 +20°C° 0 mm 3 m/s 747 mmHg 54%
23:00 +19°C° 0 mm 3 m/s 747 mmHg 57%

9 Août, Lundi

Heure Température Précipitation Vent Pression Humidité
00:00 +19°C° 0 mm 3 m/s 747 mmHg 59%
01:00 +18°C° 0 mm 3 m/s 747 mmHg 62%
02:00 +18°C° 0 mm 3 m/s 747 mmHg 64%
03:00 +18°C° 0 mm 3 m/s 747 mmHg 65%
04:00 +17°C° 0 mm 3 m/s 747 mmHg 67%
05:00 +17°C° 0 mm 3 m/s 747 mmHg 68%
06:00 +20°C° 0 mm 3 m/s 747 mmHg 61%
07:00 +22°C° 0 mm 3 m/s 747 mmHg 53%
08:00 +25°C° 0 mm 3 m/s 747 mmHg 46%
09:00 +27°C° 0 mm 3 m/s 748 mmHg 41%
10:00 +28°C° 0 mm 3 m/s 748 mmHg 36%
11:00 +30°C° 0 mm 3 m/s 748 mmHg 31%
12:00 +31°C° 0 mm 3 m/s 747 mmHg 29%
13:00 +33°C° 0 mm 3 m/s 747 mmHg 27%
14:00 +33°C° 0 mm 3 m/s 747 mmHg 25%
15:00 +33°C° 0 mm 3 m/s 747 mmHg 25%
16:00 +33°C° 0 mm 3 m/s 747 mmHg 26%
17:00 +33°C° 0 mm 3 m/s 747 mmHg 26%
18:00 +29°C° 0 mm 2 m/s 747 mmHg 31%
19:00 +27°C° 0 mm 2 m/s 747 mmHg 36%
20:00 +25°C° 0 mm 2 m/s 747 mmHg 42%
21:00 +24°C° 0 mm 2 m/s 747 mmHg 45%
22:00 +23°C° 0 mm 2 m/s 747 mmHg 48%
23:00 +21°C° 0 mm 2 m/s 747 mmHg 51%
Voir plus

Nous avons besoin de votre consentement

Meteoprog et ses fournisseurs de services peuvent stocker et accéder à des données personnelles telles que des cookies, des identifiants d'appareils ou d'autres technologies similaires sur votre appareil et traiter ces données pour personnaliser le contenu et les publicités, ainsi que pour fournir des fonctionnalités de médias sociaux et analyser le trafic.

  • Stocker et/ou accéder à des informations sur votre appareil

    Des cookies, des identifiants d'appareils ou d'autres informations peuvent être stockés ou accessibles sur votre appareil aux fins indiquées ci-dessus.

  • Annonces et contenus personnalisés, mesure des annonces et des contenus, connaissance de l'audience et développement de produits

    Les annonces et le contenu peuvent être personnalisés en fonction d'un profil. D'autres données peuvent être ajoutées pour mieux personnaliser les annonces et le contenu. Les performances des publicités et du contenu peuvent être mesurées. Il est possible d'obtenir des informations sur le public qui a vu les publicités et le contenu. Ces données peuvent être utilisées pour développer ou améliorer l'expérience de l'utilisateur, les systèmes et les logiciels.

En cliquant sur "J'accepte", vous autorisez l'utilisation de cookies, des identifiants d'appareils, des balises web ou d'autres technologies similaires. Vos paramètres peuvent être modifiés dans le navigateur de votre appareil.

Dans certains cas, des intérêts légitimes peuvent être invoqués plutôt qu'un consentement. Vous pouvez en savoir plus à ce sujet dans notre Politique de confidentialité et de cookies.